{"data":{"norad_id":58178,"epoch":"2026-05-25T03:38:06.582912Z","epoch_age_seconds":55113,"freshness":"FRESH","line1":"1 58178U 23167D   26145.15146508  .00007252  00000+0  27267-3 0  9998","line2":"2 58178  43.0011  71.1885 0000880 291.3625  68.7133 15.27596699142682","mean_motion":15.27596699,"eccentricity":8.8e-5,"inclination_deg":43.0011,"raan_deg":71.1885,"arg_perigee_deg":291.3625,"mean_anomaly_deg":68.7133,"bstar":0.00027267,"rev_number":14268,"period_min":94.265718231956,"perigee_km":482.39531370548,"apogee_km":483.60287365797,"semimajor_km":6861.1360936817,"source":"CELESTRAK","updated_at":"2026-05-25T13:38:18.568046Z"}}